Regional Weather Roundup
Issued by NWS San Angelo, TX

Home | Current Version | Previous Version | Text Only | Print | Product List | Glossary On
Versions: 1 2 3 4 5 6 7 8 9 10 11 12 13 14 15 16 17 18 19 20 21 22 23 24 25 26 27 28 29 30 31 32 33 34 35 36 37 38 39 40 41 42 43 44 45 46 47 48 49 50
000
ASUS44 KSJT 031310
RWRSJT
WEST CENTRAL TEXAS REGIONAL WEATHER ROUNDUP
NATIONAL WEATHER SERVICE SAN ANGELO TX
700 AM CST SAT DEC 03 2016

NOTE: "FAIR" INDICATES FEW OR NO CLOUDS BELOW 12,000 FEET WITH NO
SIGNIFICANT WEATHER AND/OR OBSTRUCTIONS TO VISIBILITY.

TXZ049-054-064>066-071>073-076>078-098-099-113-114-127-128-139-140-
154-155-168>170-031400
...LOCATIONS ACROSS WEST CENTRAL TEXAS...

CITY           SKY/WX    TMP DP  RH WIND       PRES   REMARKS
SAN ANGELO     CLOUDY    47  45  93 NE14      29.99R
ABILENE        LGT RAIN  44  32  62 E13       30.04F WCI  38
DYESS AFB      LGT RAIN  44  43  97 N8        30.03S WCI  39
JUNCTION       LGT RAIN  47  46  97 E14G23    29.95R
SWEETWATER     CLOUDY    44  44 100 N10       30.07F WCI  38
BROWNWOOD      LGT RAIN  46  45  93 NE6       30.03S
COLEMAN        LGT RAIN  45  44  96 NE12      30.01F WCI  39
SONORA         CLOUDY    48  48 100 NE6       30.00R
OZONA          CLOUDY    46  45  93 NE10      29.98R
BRADY          NOT AVBL
$$

TEXAS PANHANDLE/OKLAHOMA PANHANDLE

CITY           SKY/WX    TMP DP  RH WIND       PRES   REMARKS
AMARILLO       CLOUDY    33  33 100 N9        30.12R FOG     WCI  25
BORGER         FOG       34  34 100 NE6       30.14S VSB 1   WCI  29
CANADIAN       DRIZZLE   38  38  99 N3        30.16S
DALHART        CLOUDY    32  32 100 N8        30.14R WCI  25
DUMAS          CLOUDY    31  31  98 NE6       30.12S WCI  25
GUYMON         NOT AVBL
HEREFORD       CLOUDY    34  34 100 N8        30.12R WCI  27
PAMPA          DRIZZLE   37  36  96 NE6       30.14R WCI  32
PERRYTON       CLOUDY    35  34  96 NE7       30.13F WCI  29
$$

SOUTHERN PANHANDLE/SOUTH PLAINS/ROLLING PLAINS

CITY           SKY/WX    TMP DP  RH WIND       PRES   REMARKS
LUBBOCK        CLOUDY    41  39  93 E12       30.07S WCI  34
SNYDER         LGT RAIN  41  41  97 NE20      30.04F WCI  32
CHILDRESS      RAIN      43  41  93 E6        30.17R FOG     WCI  39
SEMINOLE       RAIN      41  41  99 NE14      30.05R WCI  33
$$

PERMIAN BASIN

CITY           SKY/WX    TMP DP  RH WIND       PRES   REMARKS
MIDLAND        CLOUDY    44  41  89 NE15      30.00S FOG     WCI  37
ODESSA         CLOUDY    44  41  89 E13       30.01R FOG     WCI  38
WINK           CLOUDY    44  44 100 NE12      30.00S FOG     WCI  38
$$

FAR WEST/SOUTHWEST MOUNTAINS/TRANS PECOS

CITY           SKY/WX    TMP DP  RH WIND       PRES   REMARKS
ALPINE         CLOUDY    40  40  99 E8        30.04R WCI  35
DRYDEN           N/A     52  48  86 N12       29.92R
EL PASO        CLOUDY    41  35  79 N17       29.93R WCI  32
FORT STOCKTON  CLOUDY    43  43 100 W10       30.01R WCI  37
GUADALUPE PASS LGT RAIN  34  32  92 NE35      29.95R VSB 1/4 WCI  19
MARFA          CLOUDY    41  39  93 N9        29.96S WCI  35
PECOS          CLOUDY    43  42  97 NW15      30.02S FOG     WCI  35
$$

DALLAS/FORT WORTH METROPLEX

CITY           SKY/WX    TMP DP  RH WIND       PRES   REMARKS
DFW AIRPORT    RAIN      49  45  86 E10       30.11R FOG
FTW MEACHAM    RAIN      49  45  86 NE6       30.11R FOG
DAL-EXECUTIVE  RAIN      48  47  96 E8        30.10R
GRAND PRAIRIE  NOT AVBL
ADDISON        CLOUDY    48  48 100 E12       30.14R
MESQUITE       CLOUDY    46  46 100 NE6       30.13R
LANCASTER      RAIN      49  46  90 E12       30.11R
$$

NORTH CENTRAL TEXAS

CITY           SKY/WX    TMP DP  RH WIND       PRES   REMARKS
SHRMAN/DENISON RAIN      47  45  91 SE10      30.16R
GAINESVILLE    RAIN      45  43  92 NE3       30.15R
BRIDGEPORT     RAIN      46  46 100 E8        30.13R
DENTON         RAIN      46  45  96 E9        30.11S
WAXAHACHIE     RAIN      46  46 100 NE7       30.10F
GRANBURY       RAIN      48  46  92 NE7       30.09F
$$

WESTERN NORTH TEXAS

CITY           SKY/WX    TMP DP  RH WIND       PRES   REMARKS
WICHITA FALLS  LGT RAIN  45  42  89 NE9       30.13R
VERNON         CLOUDY    46  41  82 NE9       30.14S
BRECKENRIDGE   DRIZZLE   47  46  97 NE9       30.08S
COMANCHE       LGT RAIN  45  45 100 E7        30.04F
$$

CENTRAL AND SOUTH CENTRAL TEXAS

CITY           SKY/WX    TMP DP  RH WIND       PRES   REMARKS
AUSTIN/BERGSTM LGT RAIN  50  49  96 NE20      29.94F FOG
WACO           RAIN      48  48 100 NE10      30.06R
HILLSBORO      RAIN      48  47  96 NE9       30.06F
TEMPLE         RAIN      48  47  96 NE12      30.05R
KILLEEN-GRAY   LGT RAIN  47  46  98 E13       30.00F FOG
FORT HOOD      RAIN      47  47 100 E10       30.00R FOG
GEORGETOWN     CLOUDY    48  45  87 NE12      30.00F
LAGO VISTA     RAIN      48  47  97 NE13      29.98F
SAN MARCOS     CLOUDY    54  46  76 NE12G17   29.97F
NEW BRAUNFELS  RAIN      50  48  93 NE12      29.95F FOG
RANDOLPH AFB   LGT RAIN  50  50 100 NE12      29.93S
SAN ANTONIO    LGT RAIN  51  48  89 N9        29.95S
STINSON        TSTM      53  50  89 N8G17     29.93R
PLEASANTON     NOT AVBL
LA GRANGE      CLOUDY    51  50  96 N6        29.92S
GIDDINGS       HVY RAIN  48  47  97 NE7G17    29.98F
$$

EAST TEXAS

CITY           SKY/WX    TMP DP  RH WIND       PRES   REMARKS
PARIS          CLOUDY    46  41  81 E9        30.18R
CLARKSVILLE    NOT AVBL
TYLER          HVY RAIN  48  47  96 NE10      30.10R FOG
LONGVIEW       HVY RAIN  48  48 100 E12       30.10R FOG
PALESTINE      LGT SNOW  49  48  99 NE12G17   30.06F
NACOGDOCHES    CLOUDY    48  46  93 E14G21    30.04R
$$

TEXAS HILL COUNTRY AND EDWARDS PLATEAU

CITY           SKY/WX    TMP DP  RH WIND       PRES   REMARKS
LLANO          HVY RAIN  46  46 100 CALM      30.04S
HORSESHOE BAY  LGT RAIN  48  47  99 NE5       30.00F
KERRVILLE      RAIN      49  47  95 NE8       29.96S
FREDERICKSBRG  LGT RAIN  46  45  95 NE8       29.98F
ROCKSPRINGS    LGT RAIN  48  48 100 E5        29.95R
HONDO          LGT RAIN  53  52  96 NE13      29.92S
UVALDE         DRIZZLE   54  53  97 E9        29.91S
DEL RIO        LGT RAIN  57  57 100 CALM      29.89R
$$

SOUTHEAST TEXAS

CITY           SKY/WX    TMP DP  RH WIND       PRES   REMARKS
COLLEGE STN    RAIN      49  48  97 NE9       29.99R FOG
CALDWELL       NOT AVBL
CROCKETT       HVY RAIN  48  46  93 E13G21    30.03F
BRENHAM        RAIN      50  49  98 NE6       29.95S
HUNTSVILLE     HVY RAIN  49  47  93 VRB7G21   29.96R VSB 1
CONROE         RAIN      49  48  97 E15G24    29.89F
HOUSTON BUSH   CLOUDY    52  50  93 E15G25    29.88F
HOUSTON HOBBY  CLOUDY    57  55  93 E15G24    29.88F
PERLAND        CLOUDY    59  56  89 E14       29.90S
WHARTON        CLOUDY    54  53  97 N6        29.89R FOG
$$

THE UPPER TEXAS COAST

CITY           SKY/WX    TMP DP  RH WIND       PRES   REMARKS
ORANGE         LGT RAIN N/A N/A N/A E24G31    29.95F
PORT ARTHUR    HVY RAIN  55  53  93 NE22G32   29.92S FOG
GALVESTON      LGT RAIN  66  65  96 NE9       29.87S FOG
ANGLETON       CLOUDY    63  61  93 VRB6      29.87R
BAY CITY       CLOUDY    61  61 100 CALM      29.86R FOG
$$

TEXAS COASTAL BEND, RIO GRANDE PLAINS DEEP SOUTH TEXAS

CITY           SKY/WX    TMP DP  RH WIND       PRES   REMARKS
VICTORIA       CLOUDY    53  53 100 N9        29.89R
BEEVILLE       CLOUDY    51  51 100 N12       29.88R
ROCKPORT         N/A    N/A N/A N/A MISG      29.86R
PORT ARANSAS   CLOUDY    63  63 100 N9        29.85R
PORT LAVACA    CLOUDY    55  55 100 N10       29.88R
CORPUS CHRISTI CLOUDY    63  60  90 NE7       29.85R
KINGSVILLE NAS CLOUDY    64  62  93 NE8       29.84S
COTULLA        CLOUDY    57  54  89 NE6       29.90R
LAREDO         LGT RAIN  60  59  96 N13       29.87R
BROWNSVILLE    MOCLDY    76  72  87 S13       29.83R
PORT ISABEL    CLOUDY    75  73  93 S12       29.81R FOG
HEBBRONVILLE   RAIN      70  69  97 SE3       29.85S
MCALLEN        MOCLDY    75  71  87 S8        29.82S
WESLACO        CLOUDY    73  71  91 S10       29.81S
FALFURRIAS     CLOUDY    72  70  95 CALM      29.83S
EDINBURG       PTSUNNY   76  71  84 S5        29.83R
$$




USA.gov is the U.S. government's official web portal to all federal, state and local government web resources and services.